Погода в Селине

Хорватия     44°16′30″N   15°28′44″E
темп.,
°C
ветер,
м/с
пор.,
м/с
влажн.,
%
обл.,
%
осадки,
мм/ч
давл.,
гПа
погр.,
м
11 мая, вт
вт1123:00+15всв22565 0.0 101712
02:00+14всв22535 0.0 101616
05:00+14всв3352100 0.0 101542
08:00+18в35540 0.0 1014174
11:00+22ююв56460 0.0 1013863
14:00+23ю45450 0.0 10121338
17:00+23ююв564784 0.0 10101161
20:00+17вюв366841 0.0 1009112
12 мая, ср
ср1223:00+17ююв61255100 0.1 1009713
02:00+15ююв5117584 0.9 1008653
05:00+12з0293100 7.3 1009124
08:00+14ююз22828 8.1 1009418
11:00+17з36591 0.0 10091303
14:00+17з575728 0.1 10091204
17:00+16зсз345559 0.0 1008654
20:00+13зсз2478100 0.1 1009115
13 мая, чт
чт1323:00+12юв339096 1.3 1009176
02:00+10юв22861 1.4 100837
05:00+10юв228886 0.1 100786
08:00+10сз4108669 1.6 1008671
11:00+15з356994 0.3 1007879
14:00+15зюз4668100 2.3 10071122
17:00+14юз337195 2.1 1007824
20:00+12юв22856 2.4 100727
14 мая, пт
пт1423:00+10в228821 0.4 100834
02:00+10св22853 0.6 100923
05:00+10ссз018693 0.3 100915
08:00+13ю11755 0.9 1010341
11:00+16зюз35591 0.1 10111296
14:00+16зюз46568 0.1 10121502
17:00+16зюз345596 0.0 10121224
20:00+13ююв1169100 0.0 101223
15 мая, сб
сб1523:00+12в3465100 0.0 101276
02:00+12всв3669100 0.0 1011189
05:00+12всв3570100 0.1 1010132
08:00+12всв3781100 0.7 1008227
11:00+14в3778100 0.6 1008733
14:00+13всв2389100 2.8 1008267
17:00+13ссв2387100 1.3 1008217
20:00+12с3387100 1.9 100987